Temperature
9 9 8 8 8 7 7 6 6 6 5 5 5 5 4 4 4 3 3 3 2 2 2 1 1 0 -0 -1 -1 -2 -2 -3 -4 -3 -3 -3 -3 -3 -2 -2 -2 -2 -2
9 8 8 7 7 7 6 6 6 5 5 4 4 4 4 3 3 3 2 2 2 1 1 0 0 -1 -1 -2 -2 -2 -3 -3 -4 -4 -4 -4 -4 -3 -3 -3 -3 -3 -3
8 8 7 7 6 6 6 5 5 5 4 4 4 3 3 3 2 2 1 1 1 1 0 -0 -1 -1 -2 -2 -3 -3 -3 -4 -4 -4 -4 -4 -4 -4 -4 -4 -3 -3 -3
8 7 7 6 6 6 5 5 4 4 4 3 3 3 2 2 2 1 1 1 0 -0 -0 -1 -2 -2 -3 -3 -4 -4 -4 -4 -4 -5 -5 -4 -4 -4 -4 -4 -4 -4 -4
7 7 6 6 5 5 5 4 4 3 3 3 3 2 2 2 1 1 0 -1 -1 -1 -1 -2 -2 -3 -4 -4 -4 -4 -5 -5 -5 -5 -5 -5 -4 -4 -4 -4 -5 -4 -4
7 6 6 5 5 5 4 4 3 3 3 2 2 2 1 1 0 -0 -1 -2 -2 -2 -2 -2 -3 -3 -4 -4 -5 -5 -5 -5 -5 -5 -5 -5 -5 -5 -5 -5 -5 -5 -5
6 6 5 5 4 4 4 3 3 2 2 2 1 1 1 1 -0 -1 -1 -2 -2 -3 -3 -3 -4 -4 -4 -5 -5 -5 -5 -5 -5 -5 -5 -5 -5 -5 -5 -5 -5 -5 -5
6 5 5 4 4 3 3 3 2 2 1 1 1 1 0 0 -1 -1 -2 -3 -3 -3 -3 -4 -4 -4 -5 -5 -5 -5 -5 -5 -5 -5 -5 -5 -5 -5 -5 -5 -4 -5 -5
5 5 4 4 3 3 2 2 2 1 1 1 0 -0 -0 -1 -1 -2 -3 -3 -3 -3 -4 -4 -5 -5 -5 -6 -6 -5 -5 -5 -5 -5 -5 -5 -5 -5 -4 -4 -5 -5 -5
5 4 4 3 3 2 2 1 1 0 0 -0 -0 -1 -1 -1 -2 -2 -3 -4 -4 -4 -5 -5 -5 -6 -6 -6 -6 -6 -6 -5 -5 -5 -5 -5 -5 -5 -5 -5 -5 -6 -6
4 4 3 3 2 2 1 1 0 -0 -0 -1 -1 -1 -1 -2 -2 -3 -4 -5 -5 -5 -6 -6 -6 -6 -6 -6 -6 -6 -6 -6 -5 -5 -5 -5 -5 -5 -5 -5 -6 -6 -6
3 3 2 2 2 1 1 0 -0 -1 -1 -1 -1 -1 -1 -2 -3 -3 -4 -5 -6 -6 -6 -6 -6 -6 -6 -6 -6 -6 -6 -6 -6 -6 -6 -6 -6 -6 -6 -6 -6 -6 -6
3 2 2 2 1 1 0 -0 -1 -1 -2 -2 -2 -2 -2 -3 -3 -4 -5 -5 -6 -6 -6 -6 -6 -6 -6 -6 -6 -6 -6 -6 -6 -7 -7 -7 -7 -7 -7 -6 -6 -6 -6
2 2 1 1 1 0 -0 -1 -1 -2 -2 -3 -3 -4 -4 -4 -4 -5 -5 -6 -6 -6 -6 -6 -6 -6 -6 -6 -7 -7 -7 -7 -7 -7 -7 -7 -7 -7 -7 -7 -7 -7 -7
1 1 1 0 -0 -1 -1 -1 -2 -2 -3 -4 -4 -4 -5 -5 -5 -6 -6 -6 -6 -6 -6 -6 -7 -7 -7 -7 -7 -7 -7 -7 -7 -7 -8 -8 -8 -8 -8 -7 -7 -7 -7
1 1 0 -0 -1 -1 -2 -2 -2 -3 -3 -4 -4 -5 -5 -6 -6 -6 -6 -7 -7 -7 -7 -7 -7 -7 -7 -8 -8 -8 -8 -8 -8 -8 -8 -8 -8 -8 -8 -8 -8 -8 -8
0 -0 -1 -1 -2 -2 -3 -3 -3 -3 -4 -4 -4 -5 -6 -6 -6 -7 -7 -7 -7 -7 -7 -8 -8 -8 -8 -8 -8 -8 -8 -8 -8 -8 -8 -8 -8 -8 -8 -8 -8 -8 -8
-1 -1 -2 -2 -3 -3 -4 -4 -5 -5 -5 -5 -5 -5 -6 -6 -7 -7 -7 -8 -8 -8 -8 -8 -9 -9 -9 -9 -9 -9 -9 -9 -9 -9 -9 -9 -9 -9 -9 -9 -9 -9 -9
-1 -2 -2 -3 -3 -4 -4 -5 -5 -6 -6 -6 -6 -6 -7 -7 -8 -8 -8 -8 -8 -9 -9 -9 -9 -9 -9 -9 -9 -9 -9 -9 -9 -9 -9 -9 -9 -9 -9 -9 -9 -9 -9
-2 -2 -3 -4 -4 -5 -5 -6 -6 -7 -7 -7 -7 -7 -8 -8 -8 -8 -8 -9 -9 -9 -9 -9 -9 -9 -9 -9 -9 -10 -10 -9 -9 -9 -9 -9 -9 -9 -9 -9 -9 -9 -9
-3 -3 -4 -5 -5 -5 -6 -6 -7 -7 -8 -8 -8 -8 -8 -8 -9 -9 -9 -9 -9 -10 -10 -10 -10 -10 -10 -10 -10 -10 -10 -10 -9 -9 -9 -9 -9 -9 -9 -9 -9 -9 -9
-4 -4 -5 -5 -6 -6 -7 -7 -8 -8 -8 -8 -8 -8 -9 -9 -9 -9 -10 -10 -10 -10 -10 -10 -10 -10 -10 -10 -10 -10 -10 -10 -10 -10 -9 -9 -10 -10 -10 -10 -10 -10 -10
-5 -5 -6 -6 -7 -7 -8 -8 -8 -8 -9 -9 -9 -9 -9 -10 -10 -10 -10 -10 -10 -10 -10 -10 -10 -10 -10 -10 -10 -10 -10 -10 -10 -10 -10 -10 -10 -10 -10 -10 -10 -10 -10
-6 -6 -7 -7 -8 -8 -8 -9 -9 -9 -9 -9 -10 -10 -10 -10 -10 -10 -10 -11 -11 -11 -11 -11 -11 -10 -10 -10 -10 -10 -10 -10 -10 -10 -10 -10 -10 -10 -10 -10 -10 -10 -10
-7 -7 -8 -8 -8 -9 -9 -9 -9 -10 -10 -10 -10 -10 -10 -11 -11 -11 -11 -11 -11 -11 -11 -11 -11 -11 -11 -10 -10 -10 -10 -10 -10 -10 -10 -10 -10 -10 -10 -10 -10 -10 -10
-8 -8 -9 -9 -9 -9 -10 -10 -10 -10 -10 -10 -11 -11 -11 -11 -11 -11 -11 -11 -11 -11 -11 -11 -11 -11 -11 -11 -10 -10 -10 -10 -10 -10 -11 -10 -10 -10 -10 -10 -10 -10 -10
Wind_Speed
6 5 4 3 2 2 1 1 2 2 3 4 5 6 6 7 7 6 7 8 8 9 8 9 9 9 7 7 6 6 7 8 16 13 7 7 9 11 13 16 18 17 19
6 5 4 3 2 1 1 3 3 3 4 5 5 6 7 8 8 8 9 9 9 10 10 9 10 9 9 8 7 8 9 9 12 17 11 7 9 10 11 12 12 15 14
6 5 4 2 2 2 3 4 4 4 5 6 6 7 8 8 9 9 9 9 9 10 10 10 11 10 11 9 9 9 9 11 10 13 14 9 8 9 10 11 12 10 13
6 5 4 3 3 4 4 5 5 5 6 7 7 8 9 9 9 9 9 9 10 10 10 10 10 10 11 11 10 11 11 11 11 12 13 11 9 8 8 9 10 8 10
6 4 4 4 4 4 5 6 6 6 7 8 8 9 9 8 8 9 9 9 10 10 10 10 11 14 17 15 13 10 10 10 10 12 13 12 10 7 7 7 11 9 9
5 5 4 4 4 5 6 6 7 7 8 8 8 9 9 9 16 20 16 9 9 10 10 10 11 14 17 22 24 23 20 14 12 12 13 13 13 10 9 9 10 12 10
5 4 4 4 5 6 7 7 8 8 8 9 9 9 10 13 20 21 21 13 9 9 10 10 11 12 18 11 18 23 21 24 23 17 16 16 14 11 11 12 12 13 13
4 4 5 5 6 7 7 8 8 7 8 9 10 10 10 13 21 22 22 13 9 10 10 11 11 12 13 15 12 12 13 14 17 14 13 15 15 14 14 15 15 13 12
5 6 6 6 7 7 8 9 8 8 9 9 9 10 11 14 21 23 22 10 9 10 10 11 12 11 20 24 17 14 14 13 18 23 24 23 26 26 20 11 9 11 12
7 7 7 6 7 8 9 9 8 8 9 9 10 10 11 12 19 22 22 8 9 10 9 10 17 18 23 25 16 13 15 13 12 14 16 17 15 16 21 12 9 11 11
6 6 6 7 8 9 9 8 8 9 9 9 11 11 10 13 17 21 22 11 9 10 10 8 9 21 25 26 23 14 18 18 12 10 10 9 8 8 8 8 8 9 10
5 6 7 8 8 7 8 9 8 9 9 10 10 11 9 10 15 17 22 21 19 12 11 9 11 23 26 26 21 20 25 21 8 7 8 8 7 7 7 7 8 9 9
6 7 8 8 8 8 8 9 8 8 8 9 9 11 10 8 10 21 23 24 23 15 12 19 23 26 24 17 20 23 19 9 7 8 9 8 6 7 6 6 7 8 8
7 8 8 8 8 8 7 7 7 8 9 9 10 11 11 9 8 8 9 12 16 15 13 17 23 23 18 18 17 13 8 7 8 8 8 7 6 5 6 5 6 6 6
8 8 8 8 8 8 8 8 9 8 10 11 10 10 11 12 14 21 17 11 9 12 14 10 8 8 7 7 8 8 7 7 7 6 7 7 7 6 6 5 5 5 5
7 8 7 7 7 7 8 10 14 15 21 22 21 20 16 20 26 27 26 26 26 25 17 9 8 8 9 9 9 8 7 7 7 7 7 7 7 7 7 5 5 5 6
8 8 7 7 7 8 8 9 12 14 18 20 22 23 23 25 26 26 26 26 25 22 12 8 9 9 9 9 8 8 8 7 6 7 7 7 7 7 6 6 5 5 5
8 10 9 7 8 8 8 9 10 12 14 11 14 21 23 24 24 25 25 21 13 11 8 9 10 9 9 9 8 8 8 7 7 7 7 7 7 7 6 6 5 5 6
8 7 7 8 8 8 9 9 10 12 13 13 11 13 19 21 23 23 20 10 10 10 9 9 9 9 9 9 9 8 8 8 8 7 7 7 7 7 7 6 6 9 7
8 14 13 8 8 8 9 10 11 11 12 12 13 12 10 13 11 11 9 8 10 10 10 10 10 10 9 9 8 8 8 8 8 8 8 7 7 7 7 7 7 6 6
7 10 16 12 9 9 9 10 11 11 12 13 13 15 20 14 11 11 10 9 10 10 10 10 10 9 9 8 8 9 9 9 8 8 8 7 7 7 7 7 7 7 6
8 8 8 9 10 9 11 11 11 12 13 14 13 14 21 13 11 11 11 11 10 9 10 10 10 9 9 9 9 9 9 9 8 8 8 7 7 7 7 7 7 6 6
8 10 10 10 10 15 15 11 11 12 13 13 13 13 12 11 11 11 11 10 9 9 9 9 10 10 9 9 9 9 10 9 8 8 8 8 8 8 7 7 8 7 7
9 10 11 11 11 11 12 12 12 13 13 13 12 12 12 11 11 12 11 10 10 10 9 9 10 12 14 12 10 9 9 10 9 9 10 10 9 8 8 8 8 8 8
9 10 11 11 12 12 12 13 13 13 13 13 13 13 12 12 12 12 11 10 11 11 12 11 10 11 14 14 13 12 16 19 18 12 9 9 10 10 9 9 9 8 8
10 11 11 11 11 12 13 13 14 14 13 13 13 13 12 12 12 12 11 11 11 11 11 11 12 13 15 14 15 18 21 21 21 21 13 9 10 10 10 9 10 10 9
Wind_Direction
156 153 147 154 151 145 181 252 270 279 290 295 296 297 297 295 293 289 284 283 279 280 279 276 273 271 269 266 261 260 261 266 283 288 270 265 263 268 278 277 277 277 278
159 152 153 155 152 177 252 270 275 283 287 287 291 292 291 290 288 286 286 285 280 281 281 279 276 278 270 266 264 264 267 264 275 287 287 274 264 263 267 269 277 278 273
154 151 156 172 202 240 260 273 279 282 288 289 288 287 287 287 286 282 277 278 276 274 275 274 276 275 275 272 267 269 270 274 270 279 286 281 273 268 270 271 270 271 275
155 159 179 210 231 247 261 271 276 279 283 285 284 281 281 283 284 281 278 275 274 272 269 267 268 267 270 273 275 269 270 273 273 278 284 284 277 266 265 272 278 267 270
159 175 206 226 240 254 266 272 275 277 278 278 281 283 282 283 281 281 278 273 273 274 272 267 265 274 279 283 283 276 272 276 279 282 285 287 284 278 271 270 280 281 273
172 199 218 234 250 261 266 270 275 277 277 277 277 278 281 286 298 303 303 287 277 275 278 274 274 281 286 290 291 291 289 285 283 281 284 284 284 277 272 273 278 282 283
188 211 229 240 255 263 268 272 273 275 275 278 277 275 276 282 297 303 304 302 284 278 276 278 285 286 293 282 285 288 286 284 283 281 280 280 281 276 273 274 270 271 274
203 228 241 246 257 266 270 270 271 270 272 274 276 275 276 283 297 303 305 301 283 275 272 271 275 277 279 285 276 273 270 271 274 276 269 270 270 268 263 266 271 272 269
222 239 244 245 255 264 268 269 271 273 275 273 273 274 276 284 296 302 303 290 281 277 272 271 277 275 284 292 291 282 280 276 280 281 280 280 279 283 284 282 276 279 282
233 241 247 248 252 259 264 269 271 270 273 277 278 275 275 278 291 300 302 288 283 282 277 271 281 287 291 294 289 283 284 283 278 281 283 285 284 283 284 277 271 274 278
238 248 256 255 255 259 266 268 272 276 278 279 281 279 274 277 290 296 299 296 282 284 284 279 274 290 293 293 292 285 284 288 282 281 282 279 274 270 267 263 254 256 267
247 256 261 263 265 270 268 273 275 277 281 283 285 285 277 277 287 293 297 297 297 291 288 283 280 290 292 293 294 290 292 297 292 287 284 280 276 271 265 261 258 253 253
254 261 266 269 268 267 267 275 281 279 280 285 286 289 289 276 280 293 297 298 298 294 285 289 293 295 297 296 291 292 294 292 288 285 281 278 270 268 271 271 270 265 260
258 266 269 272 275 272 268 269 273 276 279 283 286 288 290 287 278 275 275 284 290 291 288 288 293 294 293 289 289 290 280 271 276 274 276 275 275 273 274 271 274 275 274
262 268 272 271 272 277 273 267 272 263 267 280 281 280 289 293 289 295 298 292 288 284 292 286 282 282 280 276 275 271 266 271 278 270 271 276 278 274 274 269 265 267 265
266 271 271 273 274 275 281 287 280 279 286 288 288 289 289 290 297 300 301 301 302 301 301 291 288 286 284 283 282 277 269 266 267 269 272 273 275 274 277 272 263 263 267
259 269 272 271 274 276 279 286 294 295 289 289 290 292 293 295 298 300 301 302 302 303 297 286 284 283 282 281 279 276 274 269 265 267 270 270 269 270 273 273 265 264 265
262 271 275 269 269 273 276 278 283 291 297 293 289 291 295 296 298 300 302 304 298 294 276 277 278 278 277 277 277 276 275 272 267 266 266 265 264 266 268 266 261 261 267
267 269 270 269 269 270 274 277 280 283 287 291 292 291 293 296 297 296 298 290 285 284 280 277 275 274 273 273 272 271 270 270 267 266 266 262 260 259 261 259 258 267 269
269 278 285 279 273 274 276 279 282 284 286 287 289 290 293 293 288 287 281 273 277 280 279 278 276 272 270 269 268 267 267 266 263 261 262 261 257 254 257 256 254 256 254
271 278 286 286 276 276 278 279 280 283 284 286 286 288 292 293 291 288 285 280 277 278 279 278 276 273 268 265 264 263 263 264 260 258 260 258 254 256 254 253 251 250 251
271 273 273 274 278 278 280 279 281 283 285 286 289 291 294 291 286 284 283 281 277 275 274 276 276 271 267 264 264 263 264 264 261 256 255 254 253 255 253 251 251 247 245
272 276 278 278 278 284 288 283 283 284 285 285 288 290 290 285 282 283 283 282 280 278 276 274 275 273 268 262 259 257 259 261 260 257 255 256 253 251 248 248 247 245 243
274 277 281 284 284 283 284 285 284 285 285 285 286 287 287 285 285 285 284 283 281 280 277 276 275 273 270 268 265 258 254 256 256 256 252 252 251 251 247 245 245 242 240
279 281 283 285 286 287 287 287 287 287 287 287 287 286 286 285 284 284 283 281 280 281 279 277 277 275 271 267 265 263 264 267 269 263 250 246 246 243 243 244 243 240 236
285 286 287 287 286 286 287 287 288 287 286 286 286 284 284 284 284 284 284 282 280 280 280 280 274 272 273 273 269 269 272 272 271 270 262 250 242 241 237 240 238 237 236
Height
1517 1518 1518 1518 1518 1517 1516 1515 1513 1511 1509 1507 1505 1502 1500 1497 1493 1490 1487 1484 1480 1477 1474 1470 1467 1464 1461 1458 1455 1452 1448 1444 1434 1427 1429 1427 1426 1423 1421 1420 1417 1415 1413
1514 1515 1515 1515 1514 1513 1512 1511 1509 1507 1505 1502 1499 1497 1494 1490 1487 1483 1480 1476 1473 1469 1466 1462 1459 1456 1452 1449 1446 1442 1439 1435 1429 1420 1418 1417 1416 1414 1412 1410 1408 1406 1403
1511 1512 1512 1511 1510 1509 1508 1506 1504 1502 1499 1497 1494 1491 1487 1484 1480 1476 1473 1469 1465 1462 1458 1455 1451 1448 1443 1440 1437 1433 1429 1426 1422 1416 1410 1409 1407 1406 1403 1401 1399 1397 1395
1507 1508 1508 1507 1506 1505 1503 1501 1499 1497 1494 1491 1488 1485 1481 1477 1473 1469 1465 1461 1457 1454 1451 1447 1443 1439 1435 1432 1428 1424 1421 1418 1414 1409 1404 1401 1399 1398 1396 1393 1390 1388 1386
1503 1503 1503 1503 1502 1500 1498 1496 1494 1491 1488 1485 1482 1478 1475 1471 1466 1462 1457 1453 1449 1445 1442 1439 1435 1431 1427 1424 1421 1417 1414 1410 1407 1403 1398 1394 1392 1390 1388 1386 1383 1379 1377
1499 1499 1499 1498 1496 1495 1493 1491 1488 1485 1482 1479 1475 1471 1468 1464 1460 1455 1451 1446 1442 1437 1433 1430 1426 1423 1419 1416 1413 1410 1408 1404 1399 1396 1391 1388 1384 1383 1381 1378 1375 1372 1368
1494 1494 1494 1492 1491 1489 1487 1485 1482 1479 1475 1472 1468 1464 1460 1457 1452 1448 1443 1439 1434 1430 1425 1421 1417 1414 1411 1407 1403 1400 1398 1395 1393 1390 1384 1380 1378 1376 1373 1370 1367 1364 1361
1490 1489 1488 1487 1485 1483 1481 1478 1475 1472 1468 1464 1461 1457 1453 1449 1445 1440 1435 1430 1425 1421 1418 1414 1409 1405 1402 1399 1394 1390 1387 1385 1383 1380 1376 1372 1370 1367 1365 1362 1359 1356 1353
1485 1484 1483 1481 1479 1477 1474 1471 1468 1464 1460 1457 1453 1449 1444 1440 1437 1432 1427 1421 1416 1412 1409 1405 1401 1397 1394 1391 1387 1382 1378 1375 1374 1371 1368 1365 1362 1360 1358 1355 1351 1349 1345
1479 1479 1477 1475 1473 1470 1467 1464 1461 1457 1452 1448 1444 1441 1437 1432 1428 1423 1419 1413 1407 1403 1399 1396 1393 1389 1386 1383 1379 1375 1370 1366 1364 1361 1358 1355 1352 1350 1349 1347 1344 1341 1338
1474 1473 1471 1469 1467 1464 1460 1457 1453 1449 1444 1440 1436 1432 1428 1423 1418 1415 1410 1405 1400 1395 1390 1386 1383 1381 1377 1374 1371 1367 1363 1359 1355 1352 1348 1346 1343 1341 1339 1337 1335 1334 1331
1468 1467 1465 1463 1460 1457 1453 1449 1445 1441 1436 1431 1426 1421 1418 1414 1410 1405 1401 1398 1393 1388 1382 1378 1374 1371 1368 1365 1362 1358 1355 1352 1347 1344 1340 1337 1335 1332 1330 1329 1327 1325 1323
1462 1460 1458 1455 1452 1449 1445 1441 1437 1433 1428 1422 1417 1411 1406 1403 1400 1397 1392 1388 1384 1380 1375 1370 1367 1363 1360 1356 1352 1350 1347 1343 1339 1336 1332 1329 1327 1325 1323 1320 1319 1317 1315
1455 1453 1451 1448 1444 1441 1437 1433 1428 1424 1419 1414 1409 1403 1397 1393 1390 1386 1382 1378 1374 1370 1366 1361 1357 1354 1350 1347 1344 1341 1338 1335 1332 1329 1325 1323 1320 1318 1316 1314 1312 1310 1308
1449 1446 1443 1440 1436 1432 1428 1425 1420 1416 1412 1406 1400 1396 1390 1384 1381 1379 1375 1370 1366 1362 1357 1352 1348 1344 1341 1337 1335 1332 1330 1327 1325 1322 1319 1316 1314 1311 1310 1308 1306 1305 1303
1441 1438 1435 1431 1427 1423 1418 1414 1410 1407 1402 1398 1393 1389 1382 1378 1373 1370 1366 1362 1358 1354 1350 1344 1340 1337 1333 1330 1327 1324 1322 1320 1317 1315 1312 1310 1308 1306 1304 1302 1301 1300 1298
1434 1430 1426 1423 1419 1414 1410 1404 1398 1394 1392 1388 1384 1379 1374 1369 1365 1360 1356 1352 1349 1345 1341 1336 1332 1329 1325 1322 1320 1317 1314 1312 1310 1308 1306 1304 1302 1300 1298 1297 1296 1294 1293
1426 1422 1418 1414 1410 1406 1401 1396 1391 1385 1379 1374 1372 1369 1365 1360 1356 1352 1348 1343 1338 1335 1332 1328 1324 1321 1318 1315 1312 1310 1307 1305 1303 1301 1299 1297 1296 1294 1293 1291 1290 1289 1288
1417 1414 1409 1405 1401 1397 1392 1387 1382 1377 1371 1365 1360 1357 1354 1350 1346 1342 1339 1335 1330 1326 1322 1319 1316 1313 1310 1307 1305 1302 1300 1298 1296 1294 1292 1291 1290 1288 1287 1286 1285 1284 1283
1409 1405 1401 1396 1391 1387 1383 1378 1373 1368 1362 1357 1352 1348 1344 1340 1335 1332 1329 1326 1321 1317 1314 1311 1307 1305 1302 1299 1297 1295 1292 1290 1288 1287 1285 1284 1283 1282 1281 1280 1279 1278 1278
1399 1395 1391 1387 1382 1378 1373 1368 1363 1359 1353 1348 1343 1340 1337 1333 1327 1323 1320 1316 1312 1309 1305 1302 1299 1296 1294 1291 1289 1287 1284 1282 1281 1279 1278 1277 1276 1275 1274 1273 1273 1272 1272
1390 1385 1381 1377 1372 1368 1363 1359 1354 1349 1344 1339 1334 1330 1327 1323 1319 1314 1310 1306 1303 1300 1297 1293 1290 1287 1285 1283 1281 1278 1276 1274 1273 1272 1271 1270 1269 1268 1267 1267 1266 1266 1266
1381 1376 1371 1367 1363 1358 1354 1349 1345 1340 1335 1330 1326 1321 1317 1313 1309 1305 1301 1297 1294 1290 1287 1284 1281 1278 1276 1274 1272 1270 1268 1266 1265 1264 1263 1262 1261 1261 1261 1260 1260 1259 1259
1372 1367 1362 1357 1353 1348 1344 1339 1335 1330 1325 1321 1316 1312 1308 1304 1299 1295 1292 1288 1284 1281 1278 1275 1272 1269 1267 1265 1263 1261 1260 1258 1257 1256 1255 1255 1254 1253 1253 1253 1253 1252 1253
1363 1358 1353 1348 1344 1339 1334 1329 1325 1320 1316 1311 1307 1302 1298 1294 1290 1286 1282 1278 1275 1271 1268 1265 1262 1260 1257 1255 1254 1252 1251 1250 1249 1248 1247 1246 1246 1245 1245 1245 1245 1245 1246
1353 1348 1344 1339 1334 1329 1324 1320 1315 1310 1306 1301 1297 1293 1288 1284 1280 1276 1272 1269 1265 1262 1258 1255 1252 1250 1248 1246 1244 1242 1241 1240 1240 1239 1239 1238 1237 1237 1237 1237 1237 1238 1238